Location: Mohawk View
(42.7837°N, 73.7885°W)
Time: 06:34:55
(UTC+00:00)

Cosmos 1943 - Pass Details

Date: 17 June 2021
Orbit: 831 x 852 km, 71.0° (Epoch: 27 July)

Event Time Altitude Azimuth Distance (km) Brightness Sun altitude
Exits shadow 07:23:42 20° 244° (WSW) 1,855 4.5 -15.6°
Maximum altitude 07:27:07 39° 302° (WNW) 1,241 4.0 -15.2°
Drops below altitude 10° 07:32:23 10° 11° (N) 2,463 6.7 -14.7°
Sets 07:35:01 0° 19° (NNE) 3,405 7.8 -14.4°
